Dewpoint
-13 -11 -9 -8 -8 -8 -9 -9 -9 -10 -12 -14 -14 -11 -5 5 10 12 12 12 12 12 13 12 12 12 8 1 8 10 11 11 11
-12 -11 -11 -11 -11 -12 -11 -11 -10 -10 -9 -8 -8 -10 -12 -12 -8 -0 6 11 11 12 12 12 12 12 12 7 3 5 9 11 10
-10 -9 -9 -9 -10 -10 -10 -11 -12 -12 -13 -13 -12 -10 -7 -7 -10 -11 -8 3 11 11 11 12 12 12 12 12 9 6 9 9 10
-8 -8 -8 -7 -7 -7 -6 -7 -8 -7 -8 -8 -10 -11 -10 -9 -7 -7 -9 -8 1 11 11 11 11 11 12 12 12 11 8 9 10
-5 -4 -5 -5 -6 -6 -5 -4 -4 -3 -3 -5 -5 -4 -6 -6 -6 -5 -4 -3 -2 -3 9 11 10 9 12 12 12 12 11 11 10
-5 -4 -4 -5 -5 -6 -6 -7 -7 -6 -5 -4 -4 -4 -3 -3 -3 -2 -2 -1 0 1 3 4 7 8 9 11 13 12 13 12 11
-7 -6 -5 -5 -5 -6 -6 -5 -5 -6 -6 -7 -6 -5 -5 -3 -3 -2 -0 -1 -0 -0 -1 -0 2 5 6 7 8 10 11 12 12
-11 -10 -7 -7 -7 -8 -8 -8 -7 -7 -6 -5 -4 -4 -3 -1 -1 -0 0 -0 -1 -1 -1 -1 -3 -3 -4 -4 -4 -3 1 9 11
-16 -14 -13 -11 -12 -13 -12 -11 -9 -8 -6 -5 -5 -3 -2 -1 1 1 1 2 1 2 1 1 0 -1 -2 -3 -3 -3 -4 -5 -2
-12 -11 -10 -10 -10 -10 -9 -9 -9 -9 -8 -7 -6 -5 -3 -1 2 2 2 3 4 3 3 2 4 9 7 1 -4 -5 -6 -4 -3
-9 -8 -8 -7 -7 -7 -7 -7 -8 -8 -8 -8 -6 -6 -4 -1 4 3 3 5 5 5 4 6 6 4 1 4 8 8 5 2 3
-5 -5 -5 -5 -5 -6 -6 -6 -7 -7 -8 -8 -8 -9 -6 1 5 5 6 7 5 6 6 6 6 5 4 3 4 7 7 7 5
-6 -7 -7 -6 -6 -5 -5 -6 -6 -6 -7 -8 -8 -8 -8 -0 6 6 7 7 6 5 5 5 6 7 7 6 4 6 7 7 6
-7 -7 -7 -7 -7 -6 -6 -6 -6 -6 -7 -8 -8 -4 1 6 6 7 7 7 6 5 5 5 6 6 7 7 6 8 7 7 8
-7 -7 -7 -7 -6 -6 -6 -5 -5 -5 -6 -8 -7 -0 6 7 6 7 6 6 6 5 6 5 5 5 6 6 7 7 8 8 7
-8 -8 -7 -7 -6 -6 -6 -5 -5 -5 -6 -7 -3 3 6 6 6 5 5 5 5 4 4 5 5 5 5 6 5 5 7 7 8
-9 -9 -8 -7 -7 -6 -6 -5 -5 -4 -4 -5 -2 -0 5 7 3 5 4 4 3 2 0 5 5 5 5 5 5 5 5 7 7
-9 -8 -8 -8 -7 -6 -6 -5 -5 -5 -3 -3 0 1 2 -1 4 4 0 0 -3 -7 -3 2 4 6 5 4 5 5 5 6 8
-8 -8 -8 -8 -7 -7 -6 -5 -5 -4 -4 -3 -2 -1 0 2 -1 -4 -4 -6 -7 -9 -10 0 4 6 5 4 5 5 5 5 6
-9 -8 -8 -8 -7 -7 -7 -6 -5 -4 -4 -3 -3 -2 -2 -0 2 -0 -4 -5 -6 -8 -6 4 5 5 4 3 2 4 5 5 5
Wind_Speed
9 9 8 8 7 7 8 10 11 13 13 14 15 17 17 17 17 15 13 12 11 12 13 12 12 12 13 15 16 16 15 15 14
8 8 7 7 8 8 7 6 7 9 11 12 14 15 15 17 18 18 17 15 15 15 14 16 16 16 14 15 17 18 18 18 18
8 7 8 7 7 6 6 6 6 6 7 8 9 11 13 15 16 16 17 17 17 17 16 17 20 18 18 18 18 19 20 20 20
7 7 7 7 7 6 6 5 5 5 5 6 6 7 8 9 12 13 13 15 18 18 17 18 16 19 19 19 20 21 22 22 21
7 8 7 7 6 5 5 5 4 4 5 6 6 5 7 6 6 6 9 12 14 17 21 23 24 19 18 22 22 23 24 24 24
7 8 8 7 7 8 8 7 7 7 7 7 7 7 7 7 7 8 11 12 14 16 19 22 23 24 23 23 21 23 24 27 27
9 8 8 8 7 8 9 9 8 8 8 7 7 7 7 7 7 7 11 13 15 17 19 21 25 27 29 29 29 29 27 26 26
10 9 8 9 8 9 8 8 8 8 8 7 7 7 6 6 5 6 8 10 11 12 14 16 18 20 23 26 29 32 35 36 33
9 9 9 9 10 10 10 9 9 9 9 9 8 7 7 7 6 5 5 6 8 11 13 15 16 17 19 23 25 28 30 33 38
9 9 9 10 11 10 10 10 11 11 10 10 11 9 9 7 6 3 5 8 11 15 15 15 15 15 16 16 18 22 26 30 33
9 9 10 10 11 11 11 12 12 12 13 11 10 10 9 7 5 4 6 9 15 13 14 15 15 15 16 16 16 20 21 22 26
11 11 11 11 12 12 12 12 12 12 12 11 11 12 8 5 5 4 6 9 12 10 11 14 15 15 16 18 19 19 21 24 23
13 13 13 13 13 14 14 14 13 13 14 12 11 11 10 6 5 2 6 8 9 10 12 15 16 15 13 15 16 15 16 21 25
14 14 14 15 14 14 15 14 15 16 14 13 11 8 2 5 3 1 4 7 9 10 11 13 15 19 19 16 17 18 21 24 29
13 14 14 14 14 14 13 14 13 15 15 13 10 2 3 3 3 1 5 8 10 12 12 13 16 16 17 17 19 20 19 27 29
14 14 14 14 14 14 15 14 13 12 15 12 4 3 6 5 2 4 4 8 11 14 14 13 17 15 16 18 22 23 22 25 29
14 14 14 14 13 12 13 14 14 13 14 12 7 5 4 10 11 8 8 9 12 15 16 13 15 15 17 19 20 22 27 29 34
12 13 13 13 13 12 12 12 13 12 10 9 5 3 3 16 5 6 12 13 13 17 15 13 12 15 17 18 18 21 24 25 28
12 12 13 13 12 12 11 11 11 11 10 6 5 6 8 4 11 11 15 14 15 14 14 10 10 13 15 18 18 19 22 22 25
12 12 12 12 12 12 11 10 10 10 9 9 9 7 8 6 8 22 23 20 14 13 10 9 5 9 15 18 19 19 20 21 22
Wind_Direction
339 339 338 330 319 306 295 288 282 276 272 269 267 265 263 259 259 259 258 253 245 256 270 269 268 274 269 256 250 254 253 259 262
354 352 348 343 336 330 321 308 297 290 282 276 271 270 268 264 261 259 257 255 255 253 263 269 269 267 265 260 256 252 251 256 263
3 359 358 356 350 341 330 320 313 304 294 287 283 277 271 267 264 260 256 250 247 246 252 267 264 264 268 269 257 254 254 254 263
4 4 1 3 360 358 354 347 331 331 311 310 298 289 280 274 268 260 256 251 248 247 254 259 263 266 262 266 264 258 257 256 256
7 9 3 2 352 349 348 355 349 354 336 318 306 285 282 285 281 260 244 243 244 244 241 251 260 262 258 258 259 260 258 254 255
360 355 359 360 357 354 346 337 336 341 337 331 327 314 301 294 283 265 256 252 255 255 252 253 259 263 260 259 264 260 259 259 257
353 346 350 352 355 354 348 342 337 333 328 324 320 317 310 307 297 282 272 272 273 275 275 268 263 264 267 265 261 260 262 264 262
358 352 350 353 355 350 345 336 330 330 327 323 318 313 310 309 302 292 284 284 283 283 282 278 273 271 268 267 266 263 258 254 257
6 5 359 3 360 359 352 344 341 337 330 322 314 309 306 304 301 307 310 297 293 296 296 294 289 284 281 278 275 273 271 268 261
15 10 6 2 0 356 353 347 345 341 336 327 318 314 307 299 298 308 302 311 322 323 324 319 312 303 306 298 282 275 271 269 267
8 2 356 352 349 349 345 342 339 339 334 329 320 314 309 294 287 284 312 333 338 337 337 328 313 302 297 297 292 292 291 284 277
353 350 344 340 337 336 332 329 330 326 325 329 323 315 303 272 256 276 325 343 358 2 357 357 351 328 312 309 305 298 288 287 287
345 342 338 336 334 330 329 328 329 325 323 329 329 313 298 258 234 289 332 341 353 7 359 356 355 355 338 324 321 314 297 282 279
339 338 335 332 331 330 331 335 333 328 328 335 336 327 345 181 213 263 322 334 338 351 356 353 347 350 349 341 335 334 324 308 298
337 336 333 330 330 328 328 333 340 333 334 341 338 273 207 177 187 236 340 323 335 339 343 342 348 353 355 346 340 339 335 326 308
336 339 338 334 332 332 332 334 338 340 339 348 63 69 197 165 218 254 303 308 321 328 327 334 340 349 342 338 346 340 325 333 335
340 342 342 339 337 333 331 333 338 349 351 358 359 356 207 218 283 242 264 285 308 317 317 319 328 344 343 340 339 342 342 339 349
344 343 343 343 340 339 338 338 338 344 354 353 15 352 331 319 235 258 284 300 309 318 317 317 322 336 340 342 341 344 350 359 4
347 348 348 346 343 340 338 338 337 337 339 348 316 309 296 302 306 298 306 323 328 324 323 322 329 339 340 349 345 341 348 357 6
350 351 351 348 345 343 342 341 338 334 333 329 328 324 311 293 302 304 316 326 341 341 332 351 345 327 335 343 344 346 346 353 358
Height
1530 1528 1527 1526 1524 1523 1523 1523 1523 1522 1522 1522 1522 1521 1521 1521 1521 1521 1522 1522 1522 1523 1522 1523 1523 1524 1524 1524 1525 1526 1526 1527 1528
1529 1527 1526 1525 1524 1523 1521 1520 1520 1520 1519 1519 1519 1519 1518 1518 1518 1518 1518 1519 1519 1520 1519 1519 1520 1520 1521 1521 1522 1522 1523 1524 1525
1528 1527 1525 1524 1523 1521 1520 1519 1518 1517 1516 1516 1516 1516 1515 1515 1514 1514 1514 1515 1515 1516 1516 1516 1516 1517 1518 1518 1518 1519 1519 1520 1521
1528 1526 1525 1523 1522 1521 1520 1518 1517 1516 1515 1514 1513 1513 1512 1512 1511 1511 1511 1511 1512 1513 1513 1512 1512 1513 1514 1514 1514 1515 1516 1516 1518
1527 1526 1524 1523 1521 1520 1519 1518 1516 1515 1514 1513 1512 1511 1510 1510 1509 1509 1508 1508 1509 1509 1509 1509 1509 1509 1510 1510 1510 1511 1511 1512 1513
1527 1525 1524 1522 1521 1520 1519 1517 1516 1515 1514 1512 1511 1510 1509 1508 1507 1507 1507 1506 1506 1506 1506 1506 1506 1506 1506 1506 1506 1507 1507 1508 1509
1527 1525 1523 1522 1520 1519 1517 1516 1515 1514 1513 1511 1509 1508 1507 1506 1505 1505 1505 1504 1503 1503 1503 1502 1502 1501 1501 1501 1502 1503 1503 1503 1503
1527 1525 1524 1522 1521 1518 1517 1516 1514 1512 1511 1510 1508 1506 1505 1504 1503 1502 1502 1502 1501 1500 1499 1498 1497 1497 1496 1495 1494 1494 1495 1496 1497
1527 1525 1524 1522 1520 1518 1516 1515 1513 1511 1510 1508 1506 1505 1503 1502 1502 1500 1500 1499 1498 1498 1496 1495 1494 1493 1491 1490 1489 1488 1488 1488 1489
1526 1524 1523 1522 1520 1518 1516 1514 1512 1510 1509 1507 1504 1502 1501 1500 1500 1499 1497 1497 1496 1496 1494 1493 1490 1489 1487 1485 1484 1482 1481 1481 1480
1526 1524 1522 1521 1519 1517 1515 1513 1511 1509 1507 1505 1503 1501 1499 1498 1498 1496 1496 1496 1495 1493 1492 1489 1486 1484 1481 1480 1479 1477 1476 1475 1473
1526 1524 1521 1520 1518 1516 1514 1511 1510 1508 1505 1503 1501 1499 1497 1496 1496 1495 1495 1495 1494 1493 1490 1487 1483 1480 1478 1476 1474 1472 1470 1469 1468
1526 1523 1521 1519 1517 1514 1512 1509 1508 1505 1503 1501 1499 1496 1494 1494 1495 1494 1494 1493 1492 1491 1488 1485 1481 1479 1476 1474 1470 1468 1466 1464 1462
1525 1522 1520 1517 1515 1513 1510 1508 1505 1502 1500 1499 1496 1493 1492 1493 1494 1494 1492 1491 1490 1489 1486 1483 1480 1477 1474 1471 1467 1465 1463 1460 1455
1524 1521 1518 1516 1514 1512 1509 1506 1504 1501 1498 1497 1494 1493 1492 1492 1493 1492 1491 1490 1489 1487 1484 1482 1478 1475 1472 1468 1466 1462 1459 1454 1448
1522 1519 1517 1514 1512 1510 1507 1505 1503 1500 1497 1495 1494 1492 1491 1492 1492 1491 1489 1489 1487 1485 1483 1480 1476 1473 1469 1466 1463 1459 1455 1451 1444
1521 1517 1515 1513 1511 1509 1506 1504 1502 1499 1496 1495 1493 1491 1492 1490 1490 1488 1487 1487 1486 1483 1481 1479 1474 1471 1467 1465 1462 1457 1453 1447 1438
1519 1516 1513 1511 1509 1507 1505 1503 1500 1499 1497 1494 1494 1492 1491 1489 1487 1486 1485 1485 1483 1481 1478 1476 1472 1470 1467 1463 1460 1455 1452 1445 1440
1518 1515 1513 1510 1508 1506 1503 1501 1499 1498 1497 1495 1494 1492 1491 1490 1485 1483 1483 1482 1481 1478 1475 1473 1471 1468 1465 1462 1458 1454 1451 1447 1442
1518 1515 1513 1510 1508 1506 1503 1500 1498 1496 1495 1493 1491 1491 1490 1489 1488 1482 1479 1478 1478 1477 1473 1471 1469 1467 1463 1460 1457 1454 1451 1448 1444